Weather reports worldwide

Advertisment
Gogerddan, United Kingdom (99150): temperature & dewpoint: 15.05.2019 04:00:00 - 21.05.2019 04:00:00 (BST)Gogerddan, United Kingdom (99150): temperature -20cm & temperature -100cm: 15.05.2019 04:00:00 - 21.05.2019 04:00:00 (BST)Gogerddan, United Kingdom (99150): precipitation: 15.05.2019 04:00:00 - 21.05.2019 04:00:00 (BST)
Date & Time tt [°C] td [°C] tt -20cm [°C] tt -100cm [°C] rr [mm]
21.05.2019 04:00:00 6,4 5,9 - - 0,0
21.05.2019 03:00:00 6,6 6,1 - - 0,0
21.05.2019 02:00:00 7,0 6,2 - - 0,0
21.05.2019 01:00:00 7,0 5,9 - - 0,0
21.05.2019 00:00:00 7,8 6,5 - - 0,0
20.05.2019 23:00:00 8,7 7,4 - - 0,0
20.05.2019 22:00:00 9,0 7,4 - - 0,0
20.05.2019 21:00:00 11,3 8,4 - - 0,0
20.05.2019 20:00:00 12,7 8,8 - - 0,0
20.05.2019 19:00:00 13,4 8,0 - - 0,0
20.05.2019 18:00:00 14,5 9,5 - - 0,0
20.05.2019 17:00:00 15,3 9,7 - - 0,0
20.05.2019 16:00:00 14,9 10,1 - - 0,0
20.05.2019 15:00:00 14,4 10,4 - - 0,0
20.05.2019 14:00:00 15,3 10,5 - - 0,0
20.05.2019 13:00:00 14,1 10,6 - - 0,0
20.05.2019 12:00:00 14,4 10,7 - - 0,0
20.05.2019 11:00:00 13,9 10,0 - - 0,0
20.05.2019 10:00:00 12,7 9,5 13,4 11,7 0,0
20.05.2019 09:00:00 12,2 9,3 - - 0,0
20.05.2019 08:00:00 10,3 9,0 - - 0,0
20.05.2019 07:00:00 8,0 7,7 - - 0,0
20.05.2019 06:00:00 5,9 5,5 - - 0,0
20.05.2019 05:00:00 5,7 5,1 - - 0,0
20.05.2019 04:00:00 7,7 7,1 - - 0,0
20.05.2019 03:00:00 6,4 5,7 - - 0,0
20.05.2019 02:00:00 7,1 6,2 - - 0,0
20.05.2019 01:00:00 8,6 7,3 - - 0,0
20.05.2019 00:00:00 8,7 7,1 - - 0,0
19.05.2019 23:00:00 8,9 7,2 - - 0,0
19.05.2019 22:00:00 10,1 8,0 - - 0,0
19.05.2019 21:00:00 11,6 7,9 - - 0,0
19.05.2019 20:00:00 13,0 7,7 - - 0,0
19.05.2019 19:00:00 13,7 7,5 - - 0,0
19.05.2019 18:00:00 14,4 9,5 - - 0,0
19.05.2019 17:00:00 14,1 7,7 - - 0,0
19.05.2019 16:00:00 14,1 9,5 - - 0,0
19.05.2019 15:00:00 14,3 9,3 - - 0,0
19.05.2019 14:00:00 14,4 9,7 - - 0,0
19.05.2019 13:00:00 14,0 9,5 - - 0,0
19.05.2019 12:00:00 13,6 9,7 - - 0,0
19.05.2019 11:00:00 12,9 9,9 - - 0,0
19.05.2019 10:00:00 12,6 9,2 13,4 11,7 0,0
19.05.2019 09:00:00 13,1 9,7 - - 0,0
19.05.2019 08:00:00 12,5 10,4 - - 0,0
19.05.2019 07:00:00 11,0 9,8 - - 0,0
19.05.2019 06:00:00 10,7 9,5 - - 0,0
19.05.2019 05:00:00 10,8 9,3 - - 0,0
19.05.2019 04:00:00 10,7 9,2 - - 0,0
19.05.2019 03:00:00 10,8 9,3 - - 0,0
19.05.2019 02:00:00 10,6 9,0 - - 0,0
19.05.2019 01:00:00 10,4 8,9 - - 0,0
19.05.2019 00:00:00 10,6 8,9 - - 0,0
18.05.2019 23:00:00 10,8 8,7 - - 0,0
18.05.2019 22:00:00 10,7 8,8 - - 0,0
18.05.2019 21:00:00 10,6 9,0 - - 0,0
18.05.2019 20:00:00 12,5 8,6 - - 0,0
18.05.2019 19:00:00 13,4 8,9 - - 0,0
18.05.2019 18:00:00 14,9 10,3 - - 0,0
18.05.2019 17:00:00 14,6 10,0 - - 0,0
18.05.2019 16:00:00 14,9 10,8 - - 0,0
18.05.2019 15:00:00 14,4 10,0 - - 0,0
18.05.2019 14:00:00 15,5 10,2 - - 0,0
18.05.2019 13:00:00 14,2 9,9 - - 0,0
18.05.2019 12:00:00 13,8 9,3 - - 0,0
18.05.2019 11:00:00 13,9 9,6 - - 0,0
18.05.2019 10:00:00 13,3 8,5 13,0 11,5 0,0
18.05.2019 09:00:00 12,0 8,5 - - 0,0
18.05.2019 08:00:00 10,9 9,2 - - 0,0
18.05.2019 07:00:00 10,6 8,6 - - 0,0
18.05.2019 06:00:00 10,2 8,9 - - 0,0
18.05.2019 05:00:00 10,2 8,7 - - 0,0
18.05.2019 04:00:00 10,5 8,5 - - 0,0
18.05.2019 03:00:00 10,3 8,2 - - 0,0
18.05.2019 02:00:00 10,3 9,1 - - 0,0
18.05.2019 01:00:00 11,0 10,0 - - 0,0
18.05.2019 00:00:00 11,6 10,0 - - 0,0
17.05.2019 23:00:00 12,1 10,1 - - 0,0
17.05.2019 22:00:00 12,4 9,9 - - 0,0
17.05.2019 21:00:00 13,5 9,9 - - 0,0
17.05.2019 20:00:00 14,3 10,1 - - 0,0
17.05.2019 19:00:00 14,4 10,8 - - 0,0
17.05.2019 18:00:00 14,7 10,1 - - 0,0
17.05.2019 17:00:00 14,4 10,3 - - 0,0
17.05.2019 16:00:00 14,5 9,2 - - 0,0
17.05.2019 15:00:00 15,7 8,5 - - 0,0
17.05.2019 14:00:00 13,1 7,4 - - 0,0
17.05.2019 13:00:00 12,5 8,1 - - 0,4
17.05.2019 12:00:00 12,0 9,1 - - 0,0
17.05.2019 11:00:00 11,2 8,3 - - 0,0
17.05.2019 10:00:00 10,5 8,2 13,0 11,4 0,0
17.05.2019 09:00:00 9,5 7,5 - - 1,0
17.05.2019 08:00:00 10,5 5,6 - - 0,0
17.05.2019 07:00:00 10,6 4,0 - - 0,0
17.05.2019 06:00:00 9,9 3,2 - - 0,0
17.05.2019 05:00:00 10,6 2,5 - - 0,0
17.05.2019 04:00:00 11,1 2,5 - - 0,0
17.05.2019 03:00:00 11,3 2,3 - - 0,0
17.05.2019 02:00:00 11,5 2,6 - - 0,0
17.05.2019 01:00:00 12,1 2,7 - - 0,0
17.05.2019 00:00:00 11,8 3,6 - - 0,0
16.05.2019 23:00:00 12,7 4,5 - - 0,0
16.05.2019 22:00:00 13,8 5,5 - - 0,0
16.05.2019 21:00:00 14,9 5,4 - - 0,0
16.05.2019 20:00:00 15,9 3,9 - - 0,0
16.05.2019 19:00:00 17,1 4,2 - - 0,0
16.05.2019 18:00:00 18,1 4,0 - - 0,0
16.05.2019 17:00:00 17,8 3,1 - - 0,0
16.05.2019 16:00:00 18,3 4,0 - - 0,0
16.05.2019 15:00:00 18,9 4,8 - - 0,0
16.05.2019 14:00:00 17,8 4,7 - - 0,0
16.05.2019 13:00:00 16,9 3,0 - - 0,0
16.05.2019 12:00:00 17,0 2,9 - - 0,0
16.05.2019 11:00:00 16,1 3,6 - - 0,0
16.05.2019 10:00:00 14,6 5,7 12,7 11,2 0,0
16.05.2019 09:00:00 14,4 6,8 - - 0,0
16.05.2019 08:00:00 12,6 7,1 - - 0,0
16.05.2019 07:00:00 9,0 7,1 - - 0,0
16.05.2019 06:00:00 7,1 5,8 - - 0,0
16.05.2019 05:00:00 7,2 5,3 - - 0,0
16.05.2019 04:00:00 8,2 5,5 - - 0,0
16.05.2019 03:00:00 12,1 6,6 - - 0,0
16.05.2019 02:00:00 10,0 6,0 - - 0,0
16.05.2019 01:00:00 9,2 6,6 - - 0,0
16.05.2019 00:00:00 7,7 6,2 - - 0,0
15.05.2019 23:00:00 8,2 6,1 - - 0,0
15.05.2019 22:00:00 10,5 6,6 - - 0,0
15.05.2019 21:00:00 12,6 7,3 - - 0,0
15.05.2019 20:00:00 15,5 6,5 - - 0,0
15.05.2019 19:00:00 17,3 4,8 - - 0,0
15.05.2019 18:00:00 17,2 3,5 - - 0,0
15.05.2019 17:00:00 17,7 5,5 - - 0,0
15.05.2019 16:00:00 17,3 5,6 - - 0,0
15.05.2019 15:00:00 17,6 7,4 - - 0,0
15.05.2019 14:00:00 17,7 5,8 - - 0,0
15.05.2019 13:00:00 19,1 8,2 - - 0,0
15.05.2019 12:00:00 18,1 7,2 - - 0,0
15.05.2019 11:00:00 18,5 0,7 - - 0,0
15.05.2019 10:00:00 17,4 -0,4 12,7 11,0 0,0
15.05.2019 09:00:00 16,4 3,7 - - 0,0
15.05.2019 08:00:00 14,5 3,7 - - 0,0
15.05.2019 07:00:00 12,8 4,2 - - 0,0
15.05.2019 06:00:00 11,1 4,7 - - 0,0
15.05.2019 05:00:00 8,6 5,6 - - 0,0
15.05.2019 04:00:00 10,1 6,2 - - 0,0

tt = temperature
td = dewpoint
tt -20cm = temperature -20cm
tt -100cm = temperature -100cm
rr = precipitation

Next stations